Location: Cruquius
(52.3348°N, 4.6319°E)
Time: 14:09:59
(UTC+00:00)

Cosmos 2181 Rocket - Pass Details

Date: 12 May 2021
Orbit: 952 x 1014 km, 82.9° (Epoch: 19 June)

Event Time Altitude Azimuth Distance (km) Brightness Sun altitude
Exits shadow 22:11:53 26° 162° (SSE) 1,783 4.8 -16.9°
Maximum altitude 22:15:18 59° 93° (E) 1,104 4.1 -17.0°
Drops below altitude 10° 22:21:18 10° 16° (NNE) 2,693 7.1 -17.4°
Sets 22:23:50 0° 13° (NNE) 3,642 8.0 -17.5°
